User: anonymous   Login
Location: Unspecified
(0.0000°N, 0.0000°E)
Time: 12:57:04
(UTC+00:00)
Language:

UHF F/O F3 - Orbit

View from above orbital plane
View from above orbital plane
View from above satellite
View from above satellite

Ground track
Ground track

The orbit is defined by the following mean orbital elements,

1 23132U          26145.86705183 +.00000000 +00000-0 +00000-0 0 00000
2 23132  12.3580   5.8483 0002203 310.1398 230.0652  1.00268943    03
Epoch (UTC): 25 May 2026 20:48:33
Eccentricity: 0.0002203
inclination: 12.3580°
perigee height: 35778 km
apogee height: 35797 km
right ascension of ascending node: 5.8483°
argument of perigee: 310.1398°
revolutions per day: 1.00268943
mean anomaly at epoch: 230.0652°

The dashed part of the orbit path shows where the satellite is in the earth's shadow,  

DLR